owner,sensor,date,latitude,longitude,vertical_datum,sea_water_practical_salinity,qcFlag 
SCCF RECON,ioos:station:SCCF:16:1,2012-03-01T00:00:00Z,26.4345,-81.9647,2.663,35.04,1111122 
SCCF RECON,ioos:station:SCCF:16:1,2012-03-01T01:00:00Z,26.4345,-81.9647,2.558,35.03,1111122 
SCCF RECON,ioos:station:SCCF:16:1,2012-03-01T02:00:00Z,26.4345,-81.9647,2.434,35.06,1111122 
SCCF RECON,ioos:station:SCCF:16:1,2012-03-01T03:00:00Z,26.4345,-81.9647,2.309,35.05,1111122 
SCCF RECON,ioos:station:SCCF:16:1,2012-03-01T04:00:00Z,26.4345,-81.9647,2.213,34.96,1111122 
SCCF RECON,ioos:station:SCCF:16:1,2012-03-01T05:00:00Z,26.4345,-81.9647,2.17,34.78,1111122 
SCCF RECON,ioos:station:SCCF:16:1,2012-03-01T06:00:00Z,26.4345,-81.9647,2.18,34.78,1111122 
SCCF RECON,ioos:station:SCCF:16:1,2012-03-01T07:00:00Z,26.4345,-81.9647,2.21,34.74,1111122 
SCCF RECON,ioos:station:SCCF:16:1,2012-03-01T08:00:00Z,26.4345,-81.9647,2.299,34.67,1111122 
SCCF RECON,ioos:station:SCCF:16:1,2012-03-01T09:00:00Z,26.4345,-81.9647,2.348,34.61,1111122 
SCCF RECON,ioos:station:SCCF:16:1,2012-03-01T10:00:00Z,26.4345,-81.9647,2.426,34.71,1111122 
SCCF RECON,ioos:station:SCCF:16:1,2012-03-01T11:00:00Z,26.4345,-81.9647,2.496,34.79,1111122 
SCCF RECON,ioos:station:SCCF:16:1,2012-03-01T12:00:00Z,26.4345,-81.9647,2.526,34.88,1111122 
SCCF RECON,ioos:station:SCCF:16:1,2012-03-01T13:00:00Z,26.4345,-81.9647,2.524,34.83,1111122 
SCCF RECON,ioos:station:SCCF:16:1,2012-03-01T14:00:00Z,26.4345,-81.9647,2.559,34.85,1111122 
SCCF RECON,ioos:station:SCCF:16:1,2012-03-01T15:00:00Z,26.4345,-81.9647,2.577,34.85,1111122 
SCCF RECON,ioos:station:SCCF:16:1,2012-03-01T16:00:00Z,26.4345,-81.9647,2.572,34.87,1111122 
SCCF RECON,ioos:station:SCCF:16:1,2012-03-01T17:00:00Z,26.4345,-81.9647,2.551,34.87,1111122 
SCCF RECON,ioos:station:SCCF:16:1,2012-03-01T18:00:00Z,26.4345,-81.9647,2.562,34.89,1111122 
SCCF RECON,ioos:station:SCCF:16:1,2012-03-01T19:00:00Z,26.4345,-81.9647,2.596,34.9,1111122 
SCCF RECON,ioos:station:SCCF:16:1,2012-03-01T20:00:00Z,26.4345,-81.9647,2.61,34.95,1111122 
SCCF RECON,ioos:station:SCCF:16:1,2012-03-01T21:00:00Z,26.4345,-81.9647,2.705,35.02,1111122 
SCCF RECON,ioos:station:SCCF:16:1,2012-03-01T22:00:00Z,26.4345,-81.9647,2.76,35.02,1111122 
SCCF RECON,ioos:station:SCCF:16:1,2012-03-01T23:00:00Z,26.4345,-81.9647,2.737,35.02,1111122 
SCCF RECON,ioos:station:SCCF:16:1,2012-03-02T00:00:00Z,26.4345,-81.9647,2.707,35.03,1111122 
SCCF RECON,ioos:station:SCCF:16:1,2012-03-02T01:00:00Z,26.4345,-81.9647,2.625,35.03,1111122 
SCCF RECON,ioos:station:SCCF:16:1,2012-03-02T02:00:00Z,26.4345,-81.9647,2.558,35.02,1111122 
SCCF RECON,ioos:station:SCCF:16:1,2012-03-02T03:00:00Z,26.4345,-81.9647,2.45,35.01,1111122 
SCCF RECON,ioos:station:SCCF:16:1,2012-03-02T04:00:00Z,26.4345,-81.9647,2.34,34.97,1111122 
SCCF RECON,ioos:station:SCCF:16:1,2012-03-02T05:00:00Z,26.4345,-81.9647,2.237,34.92,1111122 
SCCF RECON,ioos:station:SCCF:16:1,2012-03-02T06:00:00Z,26.4345,-81.9647,2.169,34.81,1111122 
SCCF RECON,ioos:station:SCCF:16:1,2012-03-02T07:00:00Z,26.4345,-81.9647,2.165,34.75,1111122 
SCCF RECON,ioos:station:SCCF:16:1,2012-03-02T08:00:00Z,26.4345,-81.9647,2.229,34.83,1111122 
SCCF RECON,ioos:station:SCCF:16:1,2012-03-02T09:00:00Z,26.4345,-81.9647,2.308,34.82,1111122 
SCCF RECON,ioos:station:SCCF:16:1,2012-03-02T10:00:00Z,26.4345,-81.9647,2.378,34.86,1111122 
SCCF RECON,ioos:station:SCCF:16:1,2012-03-02T11:00:00Z,26.4345,-81.9647,2.459,34.88,1111122 
SCCF RECON,ioos:station:SCCF:16:1,2012-03-02T12:00:00Z,26.4345,-81.9647,2.57,34.86,1111122 
SCCF RECON,ioos:station:SCCF:16:1,2012-03-02T13:00:00Z,26.4345,-81.9647,2.623,34.76,1111122 
SCCF RECON,ioos:station:SCCF:16:1,2012-03-02T14:00:00Z,26.4345,-81.9647,2.636,34.81,1111122 
SCCF RECON,ioos:station:SCCF:16:1,2012-03-02T15:00:00Z,26.4345,-81.9647,2.648,34.87,1111122 
SCCF RECON,ioos:station:SCCF:16:1,2012-03-02T16:00:00Z,26.4345,-81.9647,2.658,34.94,1111122 
SCCF RECON,ioos:station:SCCF:16:1,2012-03-02T17:00:00Z,26.4345,-81.9647,2.629,34.95,1111122 
SCCF RECON,ioos:station:SCCF:16:1,2012-03-02T18:00:00Z,26.4345,-81.9647,2.611,34.95,1111122 
SCCF RECON,ioos:station:SCCF:16:1,2012-03-02T19:00:00Z,26.4345,-81.9647,2.628,35.01,1111122 
SCCF RECON,ioos:station:SCCF:16:1,2012-03-02T20:00:00Z,26.4345,-81.9647,2.625,35.03,1111122 
SCCF RECON,ioos:station:SCCF:16:1,2012-03-02T21:00:00Z,26.4345,-81.9647,2.668,35.03,1111122 
SCCF RECON,ioos:station:SCCF:16:1,2012-03-02T22:00:00Z,26.4345,-81.9647,2.726,35.1,1111122 
SCCF RECON,ioos:station:SCCF:16:1,2012-03-02T23:00:00Z,26.4345,-81.9647,2.75,35.11,1111122 
SCCF RECON,ioos:station:SCCF:16:1,2012-03-03T00:00:00Z,26.4345,-81.9647,2.743,35.11,1111122 
SCCF RECON,ioos:station:SCCF:16:1,2012-03-03T01:00:00Z,26.4345,-81.9647,2.722,35.11,1111122 
SCCF RECON,ioos:station:SCCF:16:1,2012-03-03T02:00:00Z,26.4345,-81.9647,2.698,35.1,1111122 
SCCF RECON,ioos:station:SCCF:16:1,2012-03-03T03:00:00Z,26.4345,-81.9647,2.618,35.1,1111122 
SCCF RECON,ioos:station:SCCF:16:1,2012-03-03T04:00:00Z,26.4345,-81.9647,2.503,35.09,1111122 
SCCF RECON,ioos:station:SCCF:16:1,2012-03-03T05:00:00Z,26.4345,-81.9647,2.385,35.1,1111122 
SCCF RECON,ioos:station:SCCF:16:1,2012-03-03T06:00:00Z,26.4345,-81.9647,2.259,35.1,1111122 
SCCF RECON,ioos:station:SCCF:16:1,2012-03-03T07:00:00Z,26.4345,-81.9647,2.131,35.03,1111122 
SCCF RECON,ioos:station:SCCF:16:1,2012-03-03T08:00:00Z,26.4345,-81.9647,2.12,34.88,1111122 
SCCF RECON,ioos:station:SCCF:16:1,2012-03-03T09:00:00Z,26.4345,-81.9647,2.209,34.81,1111122 
SCCF RECON,ioos:station:SCCF:16:1,2012-03-03T10:00:00Z,26.4345,-81.9647,2.31,34.81,1111122 
SCCF RECON,ioos:station:SCCF:16:1,2012-03-03T11:00:00Z,26.4345,-81.9647,2.407,34.84,1111122 
SCCF RECON,ioos:station:SCCF:16:1,2012-03-03T12:00:00Z,26.4345,-81.9647,2.553,34.87,1111122 
SCCF RECON,ioos:station:SCCF:16:1,2012-03-03T13:00:00Z,26.4345,-81.9647,2.637,34.92,1111122 
SCCF RECON,ioos:station:SCCF:16:1,2012-03-03T14:00:00Z,26.4345,-81.9647,2.688,35.04,1111122 
SCCF RECON,ioos:station:SCCF:16:1,2012-03-03T15:00:00Z,26.4345,-81.9647,2.712,35.1,1111122 
SCCF RECON,ioos:station:SCCF:16:1,2012-03-03T16:00:00Z,26.4345,-81.9647,2.737,35.08,1111122 
SCCF RECON,ioos:station:SCCF:16:1,2012-03-03T17:00:00Z,26.4345,-81.9647,2.731,35.07,1111122 
SCCF RECON,ioos:station:SCCF:16:1,2012-03-03T18:00:00Z,26.4345,-81.9647,2.659,35.08,1111122 
SCCF RECON,ioos:station:SCCF:16:1,2012-03-03T19:00:00Z,26.4345,-81.9647,2.622,35.1,1111122 
SCCF RECON,ioos:station:SCCF:16:1,2012-03-03T20:00:00Z,26.4345,-81.9647,2.617,35.09,1111122 
SCCF RECON,ioos:station:SCCF:16:1,2012-03-03T21:00:00Z,26.4345,-81.9647,2.672,35.09,1111122 
SCCF RECON,ioos:station:SCCF:16:1,2012-03-03T22:00:00Z,26.4345,-81.9647,2.739,35.09,1111122 
SCCF RECON,ioos:station:SCCF:16:1,2012-03-03T23:00:00Z,26.4345,-81.9647,2.76,35.11,1111122 
SCCF RECON,ioos:station:SCCF:16:1,2012-03-04T00:00:00Z,26.4345,-81.9647,2.78,35.1,1111122 
SCCF RECON,ioos:station:SCCF:16:1,2012-03-04T01:00:00Z,26.4345,-81.9647,2.822,35.13,1111122 
SCCF RECON,ioos:station:SCCF:16:1,2012-03-04T02:00:00Z,26.4345,-81.9647,2.87,35.15,1111122 
SCCF RECON,ioos:station:SCCF:16:1,2012-03-04T03:00:00Z,26.4345,-81.9647,2.854,35.15,1111122 
SCCF RECON,ioos:station:SCCF:16:1,2012-03-04T04:00:00Z,26.4345,-81.9647,2.783,35.16,1111122 
SCCF RECON,ioos:station:SCCF:16:1,2012-03-04T05:00:00Z,26.4345,-81.9647,2.664,35.17,1111122 
SCCF RECON,ioos:station:SCCF:16:1,2012-03-04T06:00:00Z,26.4345,-81.9647,2.469,35.16,1111122 
SCCF RECON,ioos:station:SCCF:16:1,2012-03-04T07:00:00Z,26.4345,-81.9647,2.33,35.11,1111122 
SCCF RECON,ioos:station:SCCF:16:1,2012-03-04T08:00:00Z,26.4345,-81.9647,2.246,35.1,1111122 
SCCF RECON,ioos:station:SCCF:16:1,2012-03-04T09:00:00Z,26.4345,-81.9647,2.192,35.1,1111122 
SCCF RECON,ioos:station:SCCF:16:1,2012-03-04T10:00:00Z,26.4345,-81.9647,2.3,35.06,1111122 
SCCF RECON,ioos:station:SCCF:16:1,2012-03-04T11:00:00Z,26.4345,-81.9647,2.496,35.09,1111122 
SCCF RECON,ioos:station:SCCF:16:1,2012-03-04T12:00:00Z,26.4345,-81.9647,2.78,35.09,1111122 
SCCF RECON,ioos:station:SCCF:16:1,2012-03-04T13:00:00Z,26.4345,-81.9647,3.026,35.1,1111122 
SCCF RECON,ioos:station:SCCF:16:1,2012-03-04T14:00:00Z,26.4345,-81.9647,2.965,35.11,1111122 
SCCF RECON,ioos:station:SCCF:16:1,2012-03-04T15:00:00Z,26.4345,-81.9647,2.591,35.19,1111122 
SCCF RECON,ioos:station:SCCF:16:1,2012-03-04T16:00:00Z,26.4345,-81.9647,2.35,35.17,1111122 
SCCF RECON,ioos:station:SCCF:16:1,2012-03-04T17:00:00Z,26.4345,-81.9647,2.182,35.11,1111122 
SCCF RECON,ioos:station:SCCF:16:1,2012-03-04T18:00:00Z,26.4345,-81.9647,2.22,35.12,1111122 
SCCF RECON,ioos:station:SCCF:16:1,2012-03-04T19:00:00Z,26.4345,-81.9647,2.268,35.01,1111122 
SCCF RECON,ioos:station:SCCF:16:1,2012-03-04T20:00:00Z,26.4345,-81.9647,2.276,34.9,1111122 
SCCF RECON,ioos:station:SCCF:16:1,2012-03-04T21:00:00Z,26.4345,-81.9647,2.169,35.0,1111122 
SCCF RECON,ioos:station:SCCF:16:1,2012-03-04T22:00:00Z,26.4345,-81.9647,2.049,34.73,1111122 
SCCF RECON,ioos:station:SCCF:16:1,2012-03-04T23:00:00Z,26.4345,-81.9647,2.131,34.89,1111122 
SCCF RECON,ioos:station:SCCF:16:1,2012-03-05T00:00:00Z,26.4345,-81.9647,2.277,34.79,1111122 
SCCF RECON,ioos:station:SCCF:16:1,2012-03-05T01:00:00Z,26.4345,-81.9647,2.326,34.79,1111122 
SCCF RECON,ioos:station:SCCF:16:1,2012-03-05T02:00:00Z,26.4345,-81.9647,2.435,34.74,1111122 
SCCF RECON,ioos:station:SCCF:16:1,2012-03-05T03:00:00Z,26.4345,-81.9647,2.468,34.6,1111122 
SCCF RECON,ioos:station:SCCF:16:1,2012-03-05T04:00:00Z,26.4345,-81.9647,2.402,34.36,1111122 
SCCF RECON,ioos:station:SCCF:16:1,2012-03-05T05:00:00Z,26.4345,-81.9647,2.28,34.24,1111122 
SCCF RECON,ioos:station:SCCF:16:1,2012-03-05T06:00:00Z,26.4345,-81.9647,2.192,34.36,1111122 
SCCF RECON,ioos:station:SCCF:16:1,2012-03-05T07:00:00Z,26.4345,-81.9647,2.02,33.9,1111122 
SCCF RECON,ioos:station:SCCF:16:1,2012-03-05T08:00:00Z,26.4345,-81.9647,1.876,33.46,1111122 
SCCF RECON,ioos:station:SCCF:16:1,2012-03-05T09:00:00Z,26.4345,-81.9647,1.773,33.2,1111122 
SCCF RECON,ioos:station:SCCF:16:1,2012-03-05T10:00:00Z,26.4345,-81.9647,1.82,32.89,1111122 
SCCF RECON,ioos:station:SCCF:16:1,2012-03-05T11:00:00Z,26.4345,-81.9647,1.972,33.13,1111122 
SCCF RECON,ioos:station:SCCF:16:1,2012-03-05T12:00:00Z,26.4345,-81.9647,2.128,33.12,1111122 
SCCF RECON,ioos:station:SCCF:16:1,2012-03-05T13:00:00Z,26.4345,-81.9647,2.272,33.08,1111122 
SCCF RECON,ioos:station:SCCF:16:1,2012-03-05T14:00:00Z,26.4345,-81.9647,2.411,33.5,1111122 
SCCF RECON,ioos:station:SCCF:16:1,2012-03-05T15:00:00Z,26.4345,-81.9647,2.491,33.59,1111122 
SCCF RECON,ioos:station:SCCF:16:1,2012-03-05T16:00:00Z,26.4345,-81.9647,2.584,34.02,1111122 
SCCF RECON,ioos:station:SCCF:16:1,2012-03-05T17:00:00Z,26.4345,-81.9647,2.568,34.38,1111122 
SCCF RECON,ioos:station:SCCF:16:1,2012-03-05T18:00:00Z,26.4345,-81.9647,2.474,34.54,1111122 
SCCF RECON,ioos:station:SCCF:16:1,2012-03-05T19:00:00Z,26.4345,-81.9647,2.416,34.4,1111122 
SCCF RECON,ioos:station:SCCF:16:1,2012-03-05T20:00:00Z,26.4345,-81.9647,2.399,34.31,1111122 
SCCF RECON,ioos:station:SCCF:16:1,2012-03-05T21:00:00Z,26.4345,-81.9647,2.404,34.55,1111122 
SCCF RECON,ioos:station:SCCF:16:1,2012-03-05T22:00:00Z,26.4345,-81.9647,2.426,34.36,1111122 
SCCF RECON,ioos:station:SCCF:16:1,2012-03-05T23:00:00Z,26.4345,-81.9647,2.514,34.58,1111122 
SCCF RECON,ioos:station:SCCF:16:1,2012-03-06T00:00:00Z,26.4345,-81.9647,2.614,34.62,1111122 
SCCF RECON,ioos:station:SCCF:16:1,2012-03-06T01:00:00Z,26.4345,-81.9647,2.712,34.71,1111122 
SCCF RECON,ioos:station:SCCF:16:1,2012-03-06T02:00:00Z,26.4345,-81.9647,2.799,34.86,1111122 
SCCF RECON,ioos:station:SCCF:16:1,2012-03-06T03:00:00Z,26.4345,-81.9647,2.882,34.96,1111122 
SCCF RECON,ioos:station:SCCF:16:1,2012-03-06T04:00:00Z,26.4345,-81.9647,2.883,35.02,1111122 
SCCF RECON,ioos:station:SCCF:16:1,2012-03-06T05:00:00Z,26.4345,-81.9647,2.781,35.04,1111122 
SCCF RECON,ioos:station:SCCF:16:1,2012-03-06T06:00:00Z,26.4345,-81.9647,2.563,34.98,1111122 
SCCF RECON,ioos:station:SCCF:16:1,2012-03-06T07:00:00Z,26.4345,-81.9647,2.306,34.89,1111122 
SCCF RECON,ioos:station:SCCF:16:1,2012-03-06T08:00:00Z,26.4345,-81.9647,2.108,34.73,1111122 
SCCF RECON,ioos:station:SCCF:16:1,2012-03-06T09:00:00Z,26.4345,-81.9647,1.973,34.23,1111122 
SCCF RECON,ioos:station:SCCF:16:1,2012-03-06T10:00:00Z,26.4345,-81.9647,1.912,34.09,1111122 
SCCF RECON,ioos:station:SCCF:16:1,2012-03-06T11:00:00Z,26.4345,-81.9647,1.978,33.97,1111122 
SCCF RECON,ioos:station:SCCF:16:1,2012-03-06T12:00:00Z,26.4345,-81.9647,2.19,33.91,1111122 
SCCF RECON,ioos:station:SCCF:16:1,2012-03-06T13:00:00Z,26.4345,-81.9647,2.382,33.81,1111122 
SCCF RECON,ioos:station:SCCF:16:1,2012-03-06T14:00:00Z,26.4345,-81.9647,2.543,34.03,1111122 
SCCF RECON,ioos:station:SCCF:16:1,2012-03-06T15:00:00Z,26.4345,-81.9647,2.653,34.47,1111122 
SCCF RECON,ioos:station:SCCF:16:1,2012-03-06T16:00:00Z,26.4345,-81.9647,2.663,34.42,1111122 
SCCF RECON,ioos:station:SCCF:16:1,2012-03-06T17:00:00Z,26.4345,-81.9647,2.646,34.48,1111122 
SCCF RECON,ioos:station:SCCF:16:1,2012-03-06T18:00:00Z,26.4345,-81.9647,2.569,34.48,1111122 
SCCF RECON,ioos:station:SCCF:16:1,2012-03-06T19:00:00Z,26.4345,-81.9647,2.466,34.46,1111122 
SCCF RECON,ioos:station:SCCF:16:1,2012-03-06T20:00:00Z,26.4345,-81.9647,2.397,34.42,1111122 
SCCF RECON,ioos:station:SCCF:16:1,2012-03-06T21:00:00Z,26.4345,-81.9647,2.311,34.53,1111122 
SCCF RECON,ioos:station:SCCF:16:1,2012-03-06T22:00:00Z,26.4345,-81.9647,2.287,34.87,1111122 
SCCF RECON,ioos:station:SCCF:16:1,2012-03-06T23:00:00Z,26.4345,-81.9647,2.322,34.95,1111122 
SCCF RECON,ioos:station:SCCF:16:1,2012-03-07T00:00:00Z,26.4345,-81.9647,2.431,34.92,1111122 
SCCF RECON,ioos:station:SCCF:16:1,2012-03-07T01:00:00Z,26.4345,-81.9647,2.66,34.91,1111122 
SCCF RECON,ioos:station:SCCF:16:1,2012-03-07T02:00:00Z,26.4345,-81.9647,2.805,35.04,1111122 
SCCF RECON,ioos:station:SCCF:16:1,2012-03-07T03:00:00Z,26.4345,-81.9647,2.876,35.05,1111122 
SCCF RECON,ioos:station:SCCF:16:1,2012-03-07T04:00:00Z,26.4345,-81.9647,2.912,35.12,1111122 
SCCF RECON,ioos:station:SCCF:16:1,2012-03-07T05:00:00Z,26.4345,-81.9647,2.864,35.18,1111122 
SCCF RECON,ioos:station:SCCF:16:1,2012-03-07T06:00:00Z,26.4345,-81.9647,2.74,35.19,1111122 
SCCF RECON,ioos:station:SCCF:16:1,2012-03-07T07:00:00Z,26.4345,-81.9647,2.58,35.15,1111122 
SCCF RECON,ioos:station:SCCF:16:1,2012-03-07T08:00:00Z,26.4345,-81.9647,2.401,35.08,1111122 
SCCF RECON,ioos:station:SCCF:16:1,2012-03-07T09:00:00Z,26.4345,-81.9647,2.245,35.16,1111122 
SCCF RECON,ioos:station:SCCF:16:1,2012-03-07T10:00:00Z,26.4345,-81.9647,2.134,35.13,1111122 
SCCF RECON,ioos:station:SCCF:16:1,2012-03-07T11:00:00Z,26.4345,-81.9647,2.099,34.69,1111122 
SCCF RECON,ioos:station:SCCF:16:1,2012-03-07T12:00:00Z,26.4345,-81.9647,2.201,34.87,1111122 
SCCF RECON,ioos:station:SCCF:16:1,2012-03-07T13:00:00Z,26.4345,-81.9647,2.387,34.84,1111122 
SCCF RECON,ioos:station:SCCF:16:1,2012-03-07T14:00:00Z,26.4345,-81.9647,2.559,34.8,1111122 
SCCF RECON,ioos:station:SCCF:16:1,2012-03-07T15:00:00Z,26.4345,-81.9647,2.703,34.85,1111122 
SCCF RECON,ioos:station:SCCF:16:1,2012-03-07T16:00:00Z,26.4345,-81.9647,2.814,35.19,1111122 
SCCF RECON,ioos:station:SCCF:16:1,2012-03-07T17:00:00Z,26.4345,-81.9647,2.85,35.13,1111122 
SCCF RECON,ioos:station:SCCF:16:1,2012-03-07T18:00:00Z,26.4345,-81.9647,2.748,35.22,1111122 
SCCF RECON,ioos:station:SCCF:16:1,2012-03-07T19:00:00Z,26.4345,-81.9647,2.602,35.27,1111122 
SCCF RECON,ioos:station:SCCF:16:1,2012-03-07T20:00:00Z,26.4345,-81.9647,2.456,35.28,1111122 
SCCF RECON,ioos:station:SCCF:16:1,2012-03-07T21:00:00Z,26.4345,-81.9647,2.36,35.27,1111122 
SCCF RECON,ioos:station:SCCF:16:1,2012-03-07T22:00:00Z,26.4345,-81.9647,2.295,35.31,1111122 
SCCF RECON,ioos:station:SCCF:16:1,2012-03-07T23:00:00Z,26.4345,-81.9647,2.292,35.27,1111122 
SCCF RECON,ioos:station:SCCF:16:1,2012-03-08T00:00:00Z,26.4345,-81.9647,2.377,35.2,1111122 
SCCF RECON,ioos:station:SCCF:16:1,2012-03-08T01:00:00Z,26.4345,-81.9647,2.546,35.17,1111122 
SCCF RECON,ioos:station:SCCF:16:1,2012-03-08T02:00:00Z,26.4345,-81.9647,2.733,35.32,1111122 
SCCF RECON,ioos:station:SCCF:16:1,2012-03-08T03:00:00Z,26.4345,-81.9647,2.829,35.31,1111122 
SCCF RECON,ioos:station:SCCF:16:1,2012-03-08T04:00:00Z,26.4345,-81.9647,2.915,35.28,1111122 
SCCF RECON,ioos:station:SCCF:16:1,2012-03-08T05:00:00Z,26.4345,-81.9647,2.957,35.27,1111122 
SCCF RECON,ioos:station:SCCF:16:1,2012-03-08T06:00:00Z,26.4345,-81.9647,2.886,35.27,1111122 
SCCF RECON,ioos:station:SCCF:16:1,2012-03-08T07:00:00Z,26.4345,-81.9647,2.76,35.29,1111122 
SCCF RECON,ioos:station:SCCF:16:1,2012-03-08T08:00:00Z,26.4345,-81.9647,2.566,35.28,1111122 
SCCF RECON,ioos:station:SCCF:16:1,2012-03-08T09:00:00Z,26.4345,-81.9647,2.379,35.27,1111122 
SCCF RECON,ioos:station:SCCF:16:1,2012-03-08T10:00:00Z,26.4345,-81.9647,2.233,35.33,1111122 
SCCF RECON,ioos:station:SCCF:16:1,2012-03-08T11:00:00Z,26.4345,-81.9647,2.152,35.3,1111122 
SCCF RECON,ioos:station:SCCF:16:1,2012-03-08T12:00:00Z,26.4345,-81.9647,2.239,35.0,1111122 
SCCF RECON,ioos:station:SCCF:16:1,2012-03-08T13:00:00Z,26.4345,-81.9647,2.446,35.18,1111122 
SCCF RECON,ioos:station:SCCF:16:1,2012-03-08T14:00:00Z,26.4345,-81.9647,2.692,35.16,1111122 
SCCF RECON,ioos:station:SCCF:16:1,2012-03-08T15:00:00Z,26.4345,-81.9647,2.887,35.24,1111122 
SCCF RECON,ioos:station:SCCF:16:1,2012-03-08T16:00:00Z,26.4345,-81.9647,2.978,35.32,1111122 
SCCF RECON,ioos:station:SCCF:16:1,2012-03-08T17:00:00Z,26.4345,-81.9647,3.024,35.3,1111122 
SCCF RECON,ioos:station:SCCF:16:1,2012-03-08T18:00:00Z,26.4345,-81.9647,3.022,35.29,1111122 
SCCF RECON,ioos:station:SCCF:16:1,2012-03-08T19:00:00Z,26.4345,-81.9647,2.894,35.31,1111122 
SCCF RECON,ioos:station:SCCF:16:1,2012-03-08T20:00:00Z,26.4345,-81.9647,2.688,35.31,1111122 
SCCF RECON,ioos:station:SCCF:16:1,2012-03-08T21:00:00Z,26.4345,-81.9647,2.537,35.32,1111122 
SCCF RECON,ioos:station:SCCF:16:1,2012-03-08T22:00:00Z,26.4345,-81.9647,2.395,35.29,1111122 
SCCF RECON,ioos:station:SCCF:16:1,2012-03-08T23:00:00Z,26.4345,-81.9647,2.345,35.32,1111122 
SCCF RECON,ioos:station:SCCF:16:1,2012-03-09T00:00:00Z,26.4345,-81.9647,2.255,35.31,1111122 
SCCF RECON,ioos:station:SCCF:16:1,2012-03-09T01:00:00Z,26.4345,-81.9647,2.389,35.11,1111122 
SCCF RECON,ioos:station:SCCF:16:1,2012-03-09T02:00:00Z,26.4345,-81.9647,2.615,35.28,1111122 
SCCF RECON,ioos:station:SCCF:16:1,2012-03-09T03:00:00Z,26.4345,-81.9647,2.795,35.27,1111122 
SCCF RECON,ioos:station:SCCF:16:1,2012-03-09T04:00:00Z,26.4345,-81.9647,2.915,35.26,1111122 
SCCF RECON,ioos:station:SCCF:16:1,2012-03-09T05:00:00Z,26.4345,-81.9647,3.0,35.33,1111122 
SCCF RECON,ioos:station:SCCF:16:1,2012-03-09T06:00:00Z,26.4345,-81.9647,2.983,35.32,1111122 
SCCF RECON,ioos:station:SCCF:16:1,2012-03-09T07:00:00Z,26.4345,-81.9647,2.887,35.3,1111122 
SCCF RECON,ioos:station:SCCF:16:1,2012-03-09T08:00:00Z,26.4345,-81.9647,2.699,35.3,1111122 
SCCF RECON,ioos:station:SCCF:16:1,2012-03-09T09:00:00Z,26.4345,-81.9647,2.469,35.3,1111122 
SCCF RECON,ioos:station:SCCF:16:1,2012-03-09T10:00:00Z,26.4345,-81.9647,2.305,35.31,1111122 
SCCF RECON,ioos:station:SCCF:16:1,2012-03-09T11:00:00Z,26.4345,-81.9647,2.178,35.19,1111122 
SCCF RECON,ioos:station:SCCF:16:1,2012-03-09T12:00:00Z,26.4345,-81.9647,2.149,35.17,1111122 
SCCF RECON,ioos:station:SCCF:16:1,2012-03-09T13:00:00Z,26.4345,-81.9647,2.282,35.3,1111122 
SCCF RECON,ioos:station:SCCF:16:1,2012-03-09T14:00:00Z,26.4345,-81.9647,2.557,35.23,1111122 
SCCF RECON,ioos:station:SCCF:16:1,2012-03-09T15:00:00Z,26.4345,-81.9647,2.799,35.29,1111122 
SCCF RECON,ioos:station:SCCF:16:1,2012-03-09T16:00:00Z,26.4345,-81.9647,2.889,35.31,1111122 
SCCF RECON,ioos:station:SCCF:16:1,2012-03-09T17:00:00Z,26.4345,-81.9647,2.949,35.31,1111122 
SCCF RECON,ioos:station:SCCF:16:1,2012-03-09T18:00:00Z,26.4345,-81.9647,2.989,35.32,1111122 
SCCF RECON,ioos:station:SCCF:16:1,2012-03-09T19:00:00Z,26.4345,-81.9647,2.919,35.31,1111122 
SCCF RECON,ioos:station:SCCF:16:1,2012-03-09T20:00:00Z,26.4345,-81.9647,2.739,35.26,1111122 
SCCF RECON,ioos:station:SCCF:16:1,2012-03-09T21:00:00Z,26.4345,-81.9647,2.508,35.29,1111122 
SCCF RECON,ioos:station:SCCF:16:1,2012-03-09T22:00:00Z,26.4345,-81.9647,2.328,35.29,1111122 
SCCF RECON,ioos:station:SCCF:16:1,2012-03-09T23:00:00Z,26.4345,-81.9647,2.221,35.26,1111122 
SCCF RECON,ioos:station:SCCF:16:1,2012-03-10T00:00:00Z,26.4345,-81.9647,2.101,35.26,1111122 
SCCF RECON,ioos:station:SCCF:16:1,2012-03-10T01:00:00Z,26.4345,-81.9647,2.125,35.3,1111122 
SCCF RECON,ioos:station:SCCF:16:1,2012-03-10T02:00:00Z,26.4345,-81.9647,2.336,35.12,1111122 
SCCF RECON,ioos:station:SCCF:16:1,2012-03-10T03:00:00Z,26.4345,-81.9647,2.587,35.3,1111122 
SCCF RECON,ioos:station:SCCF:16:1,2012-03-10T04:00:00Z,26.4345,-81.9647,2.77,35.32,1111122 
SCCF RECON,ioos:station:SCCF:16:1,2012-03-10T05:00:00Z,26.4345,-81.9647,2.866,35.31,1111122 
SCCF RECON,ioos:station:SCCF:16:1,2012-03-10T06:00:00Z,26.4345,-81.9647,2.963,35.31,1111122 
SCCF RECON,ioos:station:SCCF:16:1,2012-03-10T07:00:00Z,26.4345,-81.9647,2.964,35.31,1111122 
SCCF RECON,ioos:station:SCCF:16:1,2012-03-10T08:00:00Z,26.4345,-81.9647,2.854,35.31,1111122 
SCCF RECON,ioos:station:SCCF:16:1,2012-03-10T09:00:00Z,26.4345,-81.9647,2.672,35.31,1111122 
SCCF RECON,ioos:station:SCCF:16:1,2012-03-10T10:00:00Z,26.4345,-81.9647,2.483,35.32,1111122 
SCCF RECON,ioos:station:SCCF:16:1,2012-03-10T11:00:00Z,26.4345,-81.9647,2.353,35.32,1111122 
SCCF RECON,ioos:station:SCCF:16:1,2012-03-10T12:00:00Z,26.4345,-81.9647,2.267,35.32,1111122 
SCCF RECON,ioos:station:SCCF:16:1,2012-03-10T13:00:00Z,26.4345,-81.9647,2.27,35.17,1111122 
SCCF RECON,ioos:station:SCCF:16:1,2012-03-10T14:00:00Z,26.4345,-81.9647,2.447,35.31,1111122 
SCCF RECON,ioos:station:SCCF:16:1,2012-03-10T15:00:00Z,26.4345,-81.9647,2.718,35.28,1111122 
SCCF RECON,ioos:station:SCCF:16:1,2012-03-10T16:00:00Z,26.4345,-81.9647,2.917,35.3,1111122 
SCCF RECON,ioos:station:SCCF:16:1,2012-03-10T17:00:00Z,26.4345,-81.9647,2.992,35.3,1111122 
SCCF RECON,ioos:station:SCCF:16:1,2012-03-10T18:00:00Z,26.4345,-81.9647,3.034,35.3,1111122 
SCCF RECON,ioos:station:SCCF:16:1,2012-03-10T19:00:00Z,26.4345,-81.9647,3.002,35.29,1111122 
SCCF RECON,ioos:station:SCCF:16:1,2012-03-10T20:00:00Z,26.4345,-81.9647,2.877,35.29,1111122 
SCCF RECON,ioos:station:SCCF:16:1,2012-03-10T21:00:00Z,26.4345,-81.9647,2.636,35.3,1111122 
SCCF RECON,ioos:station:SCCF:16:1,2012-03-10T22:00:00Z,26.4345,-81.9647,2.429,35.3,1111122 
SCCF RECON,ioos:station:SCCF:16:1,2012-03-10T23:00:00Z,26.4345,-81.9647,2.258,35.31,1111122 
SCCF RECON,ioos:station:SCCF:16:1,2012-03-11T00:00:00Z,26.4345,-81.9647,2.085,35.22,1111122 
SCCF RECON,ioos:station:SCCF:16:1,2012-03-11T01:00:00Z,26.4345,-81.9647,2.021,35.25,1111122 
SCCF RECON,ioos:station:SCCF:16:1,2012-03-11T02:00:00Z,26.4345,-81.9647,2.116,35.04,1111122 
SCCF RECON,ioos:station:SCCF:16:1,2012-03-11T03:00:00Z,26.4345,-81.9647,2.342,34.99,1111122 
SCCF RECON,ioos:station:SCCF:16:1,2012-03-11T04:00:00Z,26.4345,-81.9647,2.57,35.05,1111122 
SCCF RECON,ioos:station:SCCF:16:1,2012-03-11T05:00:00Z,26.4345,-81.9647,2.687,35.25,1111122 
SCCF RECON,ioos:station:SCCF:16:1,2012-03-11T06:00:00Z,26.4345,-81.9647,2.769,35.24,1111122 
SCCF RECON,ioos:station:SCCF:16:1,2012-03-11T07:00:00Z,26.4345,-81.9647,2.854,35.26,1111122 
SCCF RECON,ioos:station:SCCF:16:1,2012-03-11T08:00:00Z,26.4345,-81.9647,2.844,35.28,1111122 
SCCF RECON,ioos:station:SCCF:16:1,2012-03-11T09:00:00Z,26.4345,-81.9647,2.723,35.28,1111122 
SCCF RECON,ioos:station:SCCF:16:1,2012-03-11T10:00:00Z,26.4345,-81.9647,2.596,35.26,1111122 
SCCF RECON,ioos:station:SCCF:16:1,2012-03-11T11:00:00Z,26.4345,-81.9647,2.489,35.25,1111122 
SCCF RECON,ioos:station:SCCF:16:1,2012-03-11T12:00:00Z,26.4345,-81.9647,2.405,35.09,1111122 
SCCF RECON,ioos:station:SCCF:16:1,2012-03-11T13:00:00Z,26.4345,-81.9647,2.335,35.07,1111122 
SCCF RECON,ioos:station:SCCF:16:1,2012-03-11T14:00:00Z,26.4345,-81.9647,2.392,35.09,1111122 
SCCF RECON,ioos:station:SCCF:16:1,2012-03-11T15:00:00Z,26.4345,-81.9647,2.548,35.16,1111122 
SCCF RECON,ioos:station:SCCF:16:1,2012-03-11T16:00:00Z,26.4345,-81.9647,2.784,35.15,1111122 